Погода в Синеборске

Россия / Красноярский край     53°29′03″N   92°05′49″E
темп.,
°C
ветер,
м/с
пор.,
м/с
влажн.,
%
обл.,
%
осадки,
мм/ч
давл.,
гПа
погр.,
м
22 июня, вт
вт2201:00+9всв337159 0.0 101045
04:00+8всв12766 0.0 100921
07:00+11в27705 0.0 1007269
10:00+17вюв355993 0.0 1005619
13:00+20зюз325419 0.0 1004826
16:00+20зсз4563100 0.0 1006801
19:00+17юз51080100 0.3 1008354
22:00+13ююв119497 3.3 100914
23 июня, ср
ср2301:00+12ююв1196100 3.8 100920
04:00+11зюз61097100 9.1 1010571
07:00+10з4997100 16.6 1013551
10:00+11зюз4990100 1.1 1013610
13:00+13зюз5783100 2.3 1014841
16:00+16зюз467084 1.1 10141336
19:00+14зюз47770 1.5 1014543
22:00+9ююв21900 0.0 101510
24 июня, чт
чт2401:00+8вюв11910 0.0 101410
04:00+7в22940 0.0 101319
07:00+10в368396 0.0 1010254
10:00+16в576646 0.0 1007662
13:00+20вюв235099 0.0 1004997
16:00+22сз2249100 0.0 10031022
19:00+19св1772100 0.0 1002319
22:00+11зсз51296100 1.4 1006445
25 июня, пт
пт2501:00+10св1195100 2.2 100811
04:00+9ююв1194100 0.0 100810
07:00+11юв1192100 0.1 1008101
10:00+14ююз2277100 0.0 1008543
13:00+14зюз5875100 0.7 1010833
16:00+15юз6969100 0.1 10101188
19:00+13юз61177100 0.3 1011670
22:00+11зюз3881100 0.0 1012229
26 июня, сб
сб2601:00+10зюз41180100 0.0 1013380
04:00+7ююз22905 0.0 101516
07:00+10ю247985 0.0 1014218
10:00+15ююз236596 0.0 1012709
13:00+18юз22545 0.0 10111359
16:00+19зсз2252100 0.0 10101267
19:00+17юз237080 0.1 1010120
22:00+12вюв1185100 2.2 101212